This demonstration page uses our WeatherBlox Daily Observations layout. Learn more.

Left ArrowRight Arrow

39.51506, -84.39828

Hourly Observations for May 24, 2020

Temp ( °F °C ) Dew Point ( °F °C ) Humidity (%) Winds ( mph kmh ) Pressure ( in mb ) Visibility ( mi km ) Precip ( " mm )
12:15 am 00:15 Clear with Mist and Fog 65 18.1 64 18 99 99 Calm 29.99 1016 3 4.82802 0 0
12:35 am 00:35 Mostly Cloudy with Fog 64 18 64 18 100 100 Calm 30 1016 0.5 0.80467 0 0
12:55 am 00:55 Mostly Cloudy with Fog 64 18 N/A N/A ENE 3 6 30 1016 0.5 0.80467 0 0
1:15 am 01:15 Mostly Cloudy with Fog 64 18 N/A N/A Calm 30 1016 0.5 0.80467 0 0
1:35 am 01:35 Mostly Cloudy with Fog 63 17 N/A N/A Calm 29.98 1015 0.25 0.402335 0 0
1:55 am 01:55 Mostly Cloudy with Fog 61 16 N/A N/A Calm 29.97 1015 0.25 0.402335 0 0
2:15 am 02:15 Mostly Cloudy with Fog 63 17 N/A N/A Calm 29.97 1015 0.25 0.402335 0 0
2:35 am 02:35 Hazy 63 17 N/A N/A SSW 5 7 29.97 1015 5 8.0467 0 0
2:55 am 02:55 Clear 63 17 N/A N/A SW 3 6 29.97 1015 7 11.26538 0 0
3:15 am 03:15 Clear with Mist and Fog 63 17 N/A N/A Calm 29.97 1015 2.5 4.02335 0 0
3:35 am 03:35 Mostly Cloudy with Mist and Fog 63 17 N/A N/A Calm 29.98 1015 1.25 2.011675 0 0
3:55 am 03:55 Mostly Cloudy with Fog 61 16 N/A N/A Calm 29.98 1015 0.5 0.80467 0 0
4:15 am 04:15 Clear with Mist and Fog 61 16 N/A N/A Calm 29.98 1015 3.5 5.63269 0 0
4:35 am 04:35 Clear with Mist and Fog 61 16 N/A N/A Calm 29.98 1015 3 4.82802 0 0
4:55 am 04:55 Mostly Cloudy with Fog 61 16 N/A N/A Calm 29.99 1016 0.5 0.80467 0 0
5:15 am 05:15 Mostly Cloudy with Fog 61 16 N/A N/A Calm 29.99 1016 0.25 0.402335 0 0
5:35 am 05:35 Mostly Cloudy with Fog 59 15 N/A N/A Calm 30.01 1016 0.25 0.402335 0 0
5:55 am 05:55 Mostly Cloudy with Fog 61 16 N/A N/A Calm 30 1016 0.25 0.402335 0 0
6:15 am 06:15 Mostly Cloudy with Fog 59 15 N/A N/A Calm 30.02 1016 0.25 0.402335 0 0
6:35 am 06:35 Mostly Cloudy with Fog 59 15 N/A N/A Calm 30.02 1016 0.25 0.402335 0 0
6:55 am 06:55 Mostly Cloudy with Fog 59 15 N/A N/A Calm 30.02 1016 0.25 0.402335 0 0
7:15 am 07:15 Hazy 59 15 N/A N/A Calm 30.03 1017 4 6.43736 0 0
7:35 am 07:35 Hazy 61 16 N/A N/A Calm 30.03 1017 7 11.26538 0 0
7:55 am 07:55 Hazy 63 17 N/A N/A Calm 30.04 1017 7 11.26538 0 0
8:15 am 08:15 Sunny 64 18 N/A N/A Calm 30.04 1017 7 11.26538 0 0
8:35 am 08:35 Sunny 66 19 N/A N/A Calm 30.04 1017 10 16.0934 0 0
8:55 am 08:55 Sunny 69 20.5 69 20.4 99 99 SSW 3 6 30.04 1017 10 16.0934 0 0
9:15 am 09:15 Sunny 70 21.3 69 20.5 95 95 SSW 6 9 30.04 1017 10 16.0934 0 0
9:35 am 09:35 Sunny 72 22 70 20.9 94 94 Calm 30.04 1017 10 16.0934 0 0
9:55 am 09:55 Sunny 73 22.7 71 21.5 93 93 WSW 7 11 30.04 1017 10 16.0934 0 0
10:15 am 10:15 Sunny 74 23.3 70 21 87 87 WSW 7 11 30.04 1017 10 16.0934 0 0
10:35 am 10:35 Sunny 76 24.5 70 21.1 81 81 SSW 6 9 30.03 1017 10 16.0934 0 0
10:55 am 10:55 Sunny 77 25.1 70 21.2 79 79 S 3 6 30.03 1017 10 16.0934 0 0
11:15 am 11:15 Sunny 78 25.6 69 20.7 74 74 Calm 30.03 1017 10 16.0934 0 0
11:35 am 11:35 Sunny 79 26.2 70 20.9 73 73 WSW 3 6 30.03 1017 10 16.0934 0 0
11:55 am 11:55 Sunny 80 26.9 71 21.7 73 73 S 3 6 30.03 1017 10 16.0934 0 0
12:15 pm 12:15 Sunny 81 27.2 71 21.6 72 72 SW 5 7 30.03 1017 10 16.0934 0 0
12:35 pm 12:35 Sunny 82 27.8 71 21.9 70 70 WSW 5 7 30.02 1016 10 16.0934 0 0
12:55 pm 12:55 Sunny 82 28 70 21.1 66 66 Calm 30.02 1016 10 16.0934 0 0
1:15 pm 13:15 Partly Cloudy 83 28.4 72 22 68 68 WSW 7 11 30.01 1016 10 16.0934 0 0
1:35 pm 13:35 Partly Cloudy 82 27.7 69 20.8 66 66 Calm 30.01 1016 10 16.0934 0 0
1:55 pm 13:55 Sunny 84 28.9 70 21.1 63 63 ESE 5 7 30 1016 10 16.0934 0 0
2:15 pm 14:15 Sunny 85 29.6 69 20.7 59 59 WSW 5 7 30 1016 10 16.0934 0 0
2:35 pm 14:35 Sunny 85 29.3 69 20.4 59 59 W 3 6 30 1016 10 16.0934 0 0
2:55 pm 14:55 Sunny 85 29.6 68 20.1 57 57 Calm 29.99 1016 10 16.0934 0 0
3:15 pm 15:15 Partly Cloudy 85 29.6 69 20.3 57 57 Calm 29.98 1015 10 16.0934 0 0
3:35 pm 15:35 Sunny 86 30.2 69 20.7 57 57 Calm 29.97 1015 10 16.0934 0 0
3:55 pm 15:55 Partly Cloudy 85 29.7 66 19 53 53 Calm 29.96 1015 10 16.0934 0 0
4:15 pm 16:15 Mostly Cloudy 87 30.5 69 20.5 55 55 S 5 7 29.96 1015 10 16.0934 0 0
4:35 pm 16:35 Sunny 85 29.6 68 20.1 57 57 ENE 3 6 29.94 1014 10 16.0934 0 0
4:55 pm 16:55 Cloudy 85 29.2 69 20.3 59 59 Calm 29.94 1014 10 16.0934 0 0
5:15 pm 17:15 Mostly Cloudy 85 29.2 67 19.7 57 57 W 3 6 29.95 1014 10 16.0934 0 0
5:35 pm 17:35 Sunny 82 27.9 70 21.2 67 67 WSW 6 9 29.96 1014 10 16.0934 0 0
5:55 pm 17:55 Sunny 82 27.6 70 21.1 68 68 SW 6 9 29.96 1014 10 16.0934 0 0
6:15 pm 18:15 Sunny 81 27.4 68 19.9 64 64 SSW 15 24 29.97 1015 10 16.0934 0 0
6:35 pm 18:35 Partly Cloudy 79 26.3 65 18.6 63 63 SSW 12 19 29.97 1015 10 16.0934 0 0
6:55 pm 18:55 Sunny 80 26.9 66 18.9 62 62 SSW 10 17 29.96 1015 10 16.0934 0 0
7:15 pm 19:15 Sunny with Nearby Thunderstorms 78 25.6 66 18.8 66 66 SSW 8 13 29.95 1014 10 16.0934 0 0
7:35 pm 19:35 Sunny 77 25 64 18 65 65 SSW 9 15 29.97 1015 10 16.0934 0 0
7:55 pm 19:55 Sunny with Nearby Thunderstorms 76 24.5 62 16.9 63 63 SSW 9 15 29.98 1015 10 16.0934 0 0
8:15 pm 20:15 Sunny with Nearby Thunderstorms 74 23.6 64 17.6 69 69 WSW 7 11 30 1016 10 16.0934 0 0
8:35 pm 20:35 Sunny 73 22.9 64 17.9 74 74 WSW 3 6 29.99 1016 10 16.0934 0 0
8:55 pm 20:55 Clear 71 21.9 65 18.2 80 80 SW 7 11 30 1016 10 16.0934 0 0
9:15 pm 21:15 Clear 72 22.3 64 18 77 77 SW 9 15 30 1016 10 16.0934 0 0
9:35 pm 21:35 Clear 72 22.2 64 17.7 76 76 SW 7 11 30 1016 10 16.0934 0 0
9:55 pm 21:55 Clear 70 21.3 64 17.8 81 81 Calm 30 1016 7 11.26538 0 0
10:15 pm 22:15 Clear 70 20.9 64 17.7 82 82 Calm 30 1016 10 16.0934 0 0
10:35 pm 22:35 Clear 69 20.8 64 17.8 83 83 Calm 30 1016 10 16.0934 0 0
10:55 pm 22:55 Clear 67 19.3 64 18 92 92 WNW 5 7 30.02 1016 10 16.0934 0 0
11:15 pm 23:15 Clear 67 19.7 64 17.7 88 88 Calm 30.02 1016 10 16.0934 0 0
11:35 pm 23:35 Clear 67 19.7 64 17.7 88 88 Calm 30.02 1016 10 16.0934 0 0
11:55 pm 23:55 Clear 67 19.4 65 18.3 93 93 Calm 30.02 1016 10 16.0934 0 0

Powered by AerisWeather